[[{"header":{"parameterUnit":"m.s-1","parameterCategory":2,"la1":30.2991,"la2":30.254,"lo1":-89.0895,"lo2":-89.0444,"dy":0.0017,"dx":0.0017,"nx":28,"ny":28,"refTime":"2023-07-31T09:00:00:Z","depth":"0","parameterNumber":2,"parameterNumberName":"U-component_of_CURRENTS"},"data":[0,0,0,0,0,0,0,0,0,0,0,0,0,0,0,0,0,0,0,0,0,0,0,0,0,0,0,0,0,0,0,0,0,0,0,0,0,0,0,0,0,0,0,0,0,0,0,0,0,0,0,0,0,0,0,0,0,0,0.4283,0.4284,0,0.4332,0.4332,0.4333,0.4302,0.4301,0.43,0.4299,0.4324,0.4326,0.4328,0,0,0,0,0,0,0,0,0,0,0,0,0,0.4223,0.4223,0.4283,0.4284,0.4285,0.4332,0.4332,0.4333,0.4302,0.4301,0.4299,0.4298,0.4324,0.4326,0.4328,0,0,0,0,0,0,0,0,0,0,0,0,0,0.4255,0.4224,0.4283,0.4278,0.4278,0.4332,0.4332,0.4333,0.4303,0.4301,0.4299,0.4297,0.4323,0.4326,0.4328,0.4379,0,0,0.4336,0.4337,0,0,0,0,0,0,0,0,0.4253,0.4257,0.4278,0.4278,0.4279,0.4312,0.4321,0.4348,0.4303,0.429,0.4299,0.4297,0.4321,0.4324,0.4333,0.438,0.4382,0.4336,0.4338,0.4339,0.434,0,0,0,0,0,0,0,0.4251,0.4255,0.4299,0.4279,0.4279,0.4293,0.4295,0.4326,0.4312,0.4291,0.429,0.4301,0.4321,0.433,0.4333,0.4382,0.4336,0.4339,0.434,0.4341,0.453,0.4533,0,0,0,0,0,0,0.425,0.4253,0.4298,0.4301,0.4265,0.4296,0.4298,0.43,0.4312,0.4313,0.4302,0.4299,0.4327,0.433,0.4334,0.4528,0.4339,0.4342,0.4343,0.4527,0.4531,0.4535,0,0,0,0,0,0,0.4248,0.4253,0.4296,0.4281,0.4288,0.4299,0.4302,0.4302,0.4318,0.4321,0.4321,0.4318,0.4326,0.433,0.4385,0.4523,0.4343,0.4345,0.4523,0.4528,0.4533,0.4831,0,0,0,0,0,0,0.4246,0.4252,0.4265,0.4281,0.4288,0.436,0.4304,0.4305,0.4329,0.4325,0.4336,0.4336,0.4325,0.4381,0.4387,0.4524,0.4347,0.4518,0.4525,0.4531,0.4817,0.4846,0.487,0,0,0,0,0,0.4244,0.4276,0.4265,0.4272,0.4302,0.4363,0.437,0.4368,0.4332,0.4369,0.4366,0.4336,0.4426,0.4386,0.4393,0.4533,0.4515,0.4523,0.4531,0.4805,0.484,0.487,0,0,0,0,0,0,0.4256,0.4277,0.4265,0.4299,0.434,0.4359,0.4398,0.4382,0.4408,0.4403,0.4377,0.4381,0.4489,0.4446,0.4402,0.4597,0.4468,0.4477,0.4674,0.4707,0.4733,0.4799,0.4349,0,0,0,0,0,0.4265,0.4297,0.4318,0.4354,0.4376,0.4385,0.4409,0.4412,0.4432,0.444,0.4448,0.4462,0.4527,0.4559,0.4588,0.4691,0.4692,0.4779,0.4806,0.483,0.4883,0.4983,0.5026,0.456,0.456,0.456,0,0,0.4284,0.4299,0.4318,0.4361,0.4387,0.4467,0.4396,0.4453,0.4545,0.4442,0.456,0.4557,0.4569,0.47,0.4744,0.4684,0.4963,0.4839,0.4861,0.4902,0.4996,0.5042,0.5083,0.4565,0.4564,0.4563,0,0,0.4357,0.435,0.441,0.4459,0.4513,0.4533,0.4554,0.4591,0.4636,0.4728,0.4705,0.4787,0.4831,0.4917,0.4955,0.514,0.5098,0.5127,0.5339,0.5436,0.5477,0.5513,0.559,0.563,0.5147,0.5148,0.5148,0,0.4386,0.4456,0.4444,0.4528,0.4594,0.4571,0.4677,0.4738,0.4793,0.4869,0.4796,0.4958,0.4964,0.5188,0.5261,0.5219,0.5234,0.5228,0.5479,0.5514,0.5546,0.5616,0.5657,0.5163,0.5161,0.516,0.5158,0,0.4513,0.4581,0.4631,0.4731,0.4795,0.4887,0.4961,0.5044,0.5065,0.512,0.5305,0.5323,0.5417,0.5452,0.5425,0.5679,0.5605,0.5503,0.5414,0.5613,0.5671,0.5709,0.5185,0.5179,0.5175,0.5171,0,0,0.4564,0.4697,0.4716,0.481,0.4916,0.4992,0.5163,0.5327,0.546,0.5526,0.5708,0.5857,0.5836,0.5878,0.5869,0.5978,0.6226,0.5856,0.5853,0.5963,0.6438,0.6224,0.6242,0.6159,0.6167,0.6173,0.6396,0,0.4684,0.4874,0.4904,0.5113,0.5235,0.5288,0.5458,0.5599,0.5688,0.5849,0.5941,0.6076,0.601,0.6059,0.6181,0.6196,0.6334,0.6175,0.6202,0.6204,0.6016,0.6282,0.5882,0.6032,0.6431,0.6438,0.6442,0,0.4808,0.4933,0.5143,0.5348,0.5403,0.5519,0.577,0.5911,0.6124,0.6187,0.6335,0.635,0.6571,0.6426,0.6654,0.6544,0.6549,0.6549,0.6555,0.6283,0.606,0.5891,0.6084,0.5896,0.6498,0.6493,0.6489,0,0.4886,0.51,0.5276,0.535,0.5572,0.5696,0.5814,0.6028,0.6163,0.6391,0.6467,0.6685,0.6769,0.6853,0.6845,0.6769,0.7029,0.6898,0.6739,0.6721,0.6353,0.6289,0.6391,0.7096,0.7095,0.7095,0.7094,0,0.5015,0.5177,0.5331,0.5443,0.5675,0.5793,0.6029,0.617,0.6366,0.6506,0.6631,0.6758,0.6874,0.6987,0.6975,0.6981,0.7138,0.6865,0.6801,0.6439,0.6383,0.6168,0.6104,0.7103,0.7101,0.71,0.7098,0,0.5117,0.5206,0.5425,0.5647,0.5714,0.5887,0.6096,0.6231,0.6426,0.66,0.6665,0.6876,0.6993,0.7071,0.7203,0.7116,0.6929,0.7098,0.6658,0.6538,0.6146,0.6111,0.6032,0.5874,0.699,0.6987,0.6984,0,0.5217,0.5333,0.553,0.5601,0.5705,0.5927,0.6029,0.6241,0.6331,0.6632,0.6677,0.6893,0.6952,0.7094,0.6966,0.6947,0.6802,0.6603,0.6396,0.616,0.6077,0.5921,0.5785,0.6043,0.6033,0.6024,0.6018,0,0.5418,0.5444,0.5571,0.5657,0.5761,0.59,0.6047,0.613,0.6331,0.6451,0.6594,0.6693,0.6777,0.6556,0.6535,0.6477,0.6241,0.6424,0.6307,0.5492,0.5207,0.5003,0.587,0.5942,0.595,0.5955,0.5959,0.5962,0.5529,0.5601,0.5636,0.569,0.5759,0.5782,0.5818,0.5919,0.6015,0.6035,0.6306,0.624,0.616,0.6026,0.5972,0.5568,0.5696,0.5336,0.5368,0.5277,0.4954,0.566,0.5556,0.5561,0.5566,0.557,0.5573,0,0.5607,0.5595,0.5647,0.5632,0.5549,0.5642,0.5713,0.5647,0.5601,0.5636,0.5655,0.5422,0.5181,0.5102,0.4759,0.4549,0.4388,0.4428,0.4131,0.4093,0.4814,0.4593,0.4116,0.4116,0.4117,0.4117,0.4117,0.4117,0.5647,0.5629,0.556,0.5363,0.5314,0.5179,0.5158,0.5074,0.5048,0.4745,0.4504,0.4491,0.4508,0.4266,0.3949,0.3853,0.3639,0.3379,0.3554,0.4036,0.4122,0.4205,0.3984,0.3388,0.3387,0.2568,0.2562,0.2557]},{"header":{"parameterUnit":"m.s-1","parameterCategory":2,"la1":30.2991,"la2":30.254,"lo1":-89.0895,"lo2":-89.0444,"dy":0.0017,"dx":0.0017,"nx":28,"ny":28,"refTime":"2023-07-31T09:00:00:Z","depth":"0","parameterNumber":3,"parameterNumberName":"V-component_of_CURRENTS"},"data":[0,0,0,0,0,0,0,0,0,0,0,0,0,0,0,0,0,0,0,0,0,0,0,0,0,0,0,0,0,0,0,0,0,0,0,0,0,0,0,0,0,0,0,0,0,0,0,0,0,0,0,0,0,0,0,0,0,0,0.0168,0.0167,0,0.0137,0.0137,0.0136,0.0087,0.0086,0.0085,0.0085,0.0029,0.0028,0.0027,0,0,0,0,0,0,0,0,0,0,0,0,0,0.0189,0.0189,0.0168,0.0167,0.0167,0.0137,0.0137,0.0136,0.0087,0.0086,0.0085,0.0084,0.0029,0.0028,0.0027,0,0,0,0,0,0,0,0,0,0,0,0,0,0.0171,0.0189,0.0168,0.0139,0.0136,0.0137,0.0137,0.0136,0.0087,0.0086,0.0085,0.0084,0.0029,0.0028,0.0027,0.0047,0,0,0.0024,0.0023,0,0,0,0,0,0,0,0,0.0172,0.017,0.0144,0.0141,0.0138,0.0115,0.0124,0.0105,0.0088,0.0106,0.0085,0.0083,0.0056,0.0053,0.005,0.0044,0.0041,0.0024,0.0023,0.0023,0.0022,0,0,0,0,0,0,0,0.0173,0.0171,0.0155,0.0144,0.014,0.013,0.0126,0.012,0.0088,0.0104,0.0101,0.0098,0.0054,0.0051,0.0048,0.0041,0.0024,0.0023,0.0022,0.0022,0.0066,0.0067,0,0,0,0,0,0,0.0179,0.0173,0.0156,0.0154,0.0153,0.0131,0.0126,0.0123,0.0088,0.0082,0.0099,0.0096,0.0053,0.0049,0.0046,0.0096,0.0023,0.0022,0.0021,0.0064,0.0066,0.0068,0,0,0,0,0,0,0.018,0.0178,0.0157,0.0163,0.016,0.0132,0.0129,0.0123,0.0122,0.0085,0.0078,0.0103,0.0052,0.0047,0.005,0.0092,0.0021,0.002,0.0062,0.0065,0.0067,0.0178,0,0,0,0,0,0,0.0181,0.0178,0.0186,0.0163,0.0159,0.0175,0.013,0.0124,0.0122,0.0118,0.0087,0.008,0.0051,0.0052,0.0049,0.009,0.0019,0.006,0.0063,0.0066,0.0172,0.0184,0.0194,0,0,0,0,0,0.0181,0.0207,0.0187,0.0185,0.0168,0.0176,0.0175,0.0149,0.0124,0.0139,0.0112,0.0081,0.0071,0.0053,0.0049,0.009,0.0058,0.0062,0.0066,0.0167,0.0182,0.0194,0,0,0,0,0,0,0.0225,0.0203,0.0181,0.0198,0.0191,0.0168,0.0186,0.016,0.0151,0.0147,0.01,0.0093,0.011,0.0087,0.0067,0.0113,0.0061,0.0065,0.014,0.0153,0.0164,0.0208,0.0019,0,0,0,0,0,0.0237,0.0248,0.0223,0.024,0.024,0.0212,0.0213,0.0195,0.018,0.0175,0.0148,0.0129,0.0126,0.0127,0.0115,0.0144,0.014,0.0168,0.018,0.0189,0.0223,0.0249,0.0266,0.0081,0.0081,0.0081,0,0,0.0258,0.025,0.0255,0.025,0.0244,0.0264,0.0211,0.0225,0.0246,0.0172,0.0196,0.0164,0.014,0.0167,0.0174,0.0153,0.0239,0.0194,0.0203,0.0232,0.0255,0.0273,0.0289,0.0084,0.0084,0.0083,0,0,0.0318,0.0302,0.0331,0.0332,0.0329,0.0315,0.0322,0.0303,0.0301,0.0315,0.027,0.0271,0.0256,0.0257,0.0254,0.0324,0.0291,0.0312,0.0414,0.0438,0.0454,0.0468,0.0485,0.05,0.0325,0.0326,0.0326,0,0.0344,0.0372,0.0345,0.0376,0.039,0.0343,0.0383,0.0382,0.0365,0.0384,0.0339,0.0347,0.031,0.0367,0.0382,0.0354,0.0356,0.0363,0.0455,0.0468,0.0481,0.0495,0.051,0.0332,0.0331,0.033,0.033,0,0.042,0.0444,0.0469,0.0487,0.0501,0.0531,0.052,0.0535,0.0515,0.0511,0.0551,0.0508,0.0521,0.0503,0.0461,0.0539,0.0507,0.0459,0.0424,0.0507,0.0515,0.0529,0.034,0.0338,0.0336,0.0335,0,0,0.0468,0.0513,0.0519,0.0552,0.0562,0.0585,0.0632,0.0667,0.0718,0.0696,0.0773,0.0745,0.0722,0.0719,0.0672,0.0686,0.0753,0.0618,0.0617,0.0642,0.081,0.0726,0.0732,0.0718,0.0721,0.0723,0.0781,0,0.0534,0.0618,0.0619,0.0701,0.0745,0.0732,0.079,0.0816,0.0826,0.0888,0.0868,0.0912,0.0807,0.0825,0.0826,0.0793,0.0794,0.0742,0.0722,0.0722,0.0642,0.0747,0.0674,0.0714,0.0793,0.0795,0.0797,0,0.0599,0.0652,0.0746,0.0824,0.0844,0.0886,0.0971,0.1018,0.1083,0.1099,0.1135,0.1114,0.1166,0.1043,0.1047,0.1021,0.0927,0.0873,0.0873,0.0772,0.0664,0.0644,0.0734,0.0543,0.0817,0.0815,0.0814,0,0.0651,0.0735,0.0819,0.0843,0.0924,0.0975,0.102,0.1086,0.1167,0.1248,0.1323,0.1341,0.1404,0.131,0.1196,0.1134,0.1182,0.1078,0.0909,0.0901,0.0827,0.0807,0.0739,0.1052,0.1052,0.1051,0.1051,0,0.0717,0.0786,0.0853,0.0903,0.1027,0.105,0.1193,0.123,0.1341,0.149,0.1448,0.1584,0.1474,0.1476,0.1304,0.1187,0.127,0.0967,0.0928,0.086,0.0844,0.066,0.0527,0.1054,0.1053,0.1053,0.1052,0,0.0769,0.0811,0.0915,0.1013,0.1058,0.1146,0.1306,0.1416,0.1494,0.1693,0.174,0.1823,0.1841,0.1682,0.1577,0.1362,0.1086,0.1124,0.105,0.0999,0.0622,0.0498,0.039,0.031,0.0968,0.0967,0.0965,0,0.0818,0.0872,0.0993,0.1082,0.1135,0.1275,0.1394,0.1489,0.1616,0.1861,0.1976,0.2061,0.2169,0.198,0.1613,0.1318,0.1081,0.0998,0.0842,0.0632,0.0466,0.038,0.0315,0.0791,0.0788,0.0786,0.0784,0,0.0915,0.0939,0.1021,0.118,0.131,0.1472,0.1634,0.1757,0.1921,0.2126,0.2397,0.2517,0.2328,0.2055,0.1597,0.1337,0.0826,0.094,0.076,0.0366,0.0237,0.0129,0.0716,0.0765,0.0767,0.0769,0.077,0.077,0.0993,0.1048,0.1143,0.129,0.1447,0.1641,0.1801,0.2007,0.2271,0.2579,0.2684,0.2898,0.2405,0.1803,0.1446,0.067,0.0699,0.0405,0.0291,0.024,0.0103,0.0642,0.0609,0.061,0.0611,0.0611,0.0612,0,0.1094,0.1137,0.1266,0.144,0.1609,0.168,0.1954,0.2148,0.2494,0.2773,0.3036,0.2869,0.2269,0.1603,0.0562,0.0102,-0.0051,-0.0146,-0.028,-0.0301,0.0217,0.0146,-0.0032,-0.0032,-0.0032,-0.0031,-0.0031,-0.0031,0.1159,0.1256,0.1284,0.1537,0.1676,0.1933,0.2099,0.2421,0.2672,0.2993,0.3083,0.3117,0.2526,0.0857,-0.0266,-0.0498,-0.0722,-0.083,-0.0895,-0.0571,-0.0528,-0.0487,-0.058,-0.0908,-0.0909,-0.1368,-0.1374,-0.1378]}],[{"header":{"parameterUnit":"m.s-1","parameterCategory":2,"la1":30.2991,"la2":30.254,"lo1":-89.0895,"lo2":-89.0444,"dy":0.0017,"dx":0.0017,"nx":28,"ny":28,"refTime":"2023-07-31T09:00:00:Z","depth":"2","parameterNumber":2,"parameterNumberName":"U-component_of_CURRENTS"},"data":[0,0,0,0,0,0,0,0,0,0,0,0,0,0,0,0,0,0,0,0,0,0,0,0,0,0,0,0,0,0,0,0,0,0,0,0,0,0,0,0,0,0,0,0,0,0,0,0,0,0,0,0,0,0,0,0,0,0,0.3358,0.3359,0,0.3387,0.3387,0.3387,0.3389,0.3389,0.3389,0.3389,0.342,0.342,0.3421,0,0,0,0,0,0,0,0,0,0,0,0,0,0.3275,0.3276,0.3358,0.3359,0.336,0.3387,0.3387,0.3387,0.3389,0.3389,0.3389,0.3389,0.3419,0.342,0.3421,0,0,0,0,0,0,0,0,0,0,0,0,0,0.3304,0.3277,0.3358,0.3367,0.3369,0.3387,0.3387,0.3387,0.3389,0.3389,0.3389,0.3389,0.3419,0.342,0.3421,0.3426,0,0,0.3425,0.3425,0,0,0,0,0,0,0,0,0.3302,0.3306,0.3365,0.3367,0.3368,0.3388,0.3369,0.3402,0.3389,0.3376,0.3389,0.3389,0.3412,0.3414,0.3413,0.3427,0.3429,0.3425,0.3425,0.3426,0.3426,0,0,0,0,0,0,0,0.33,0.3305,0.3365,0.3366,0.3368,0.336,0.3364,0.3375,0.339,0.3377,0.3379,0.3389,0.3412,0.3412,0.3414,0.3429,0.3425,0.3426,0.3426,0.3427,0.3547,0.3549,0,0,0,0,0,0,0.3307,0.3304,0.3364,0.3366,0.334,0.3362,0.3366,0.3378,0.339,0.3393,0.3389,0.3389,0.341,0.3412,0.3415,0.3542,0.3426,0.3427,0.3428,0.3544,0.3547,0.355,0,0,0,0,0,0,0.3306,0.3313,0.3363,0.3339,0.3345,0.3364,0.3377,0.3379,0.3401,0.3399,0.3402,0.3413,0.341,0.3413,0.3462,0.3538,0.3427,0.3429,0.3541,0.3545,0.3549,0.3719,0,0,0,0,0,0,0.3303,0.3312,0.3324,0.334,0.3347,0.3403,0.3377,0.3379,0.3408,0.3409,0.342,0.3421,0.341,0.346,0.3463,0.3538,0.3429,0.3538,0.3543,0.3548,0.371,0.3728,0.3743,0,0,0,0,0,0.33,0.3316,0.3324,0.3332,0.3363,0.3405,0.3409,0.3418,0.3409,0.3435,0.3446,0.3422,0.3492,0.3463,0.3466,0.3543,0.3536,0.3542,0.3547,0.3703,0.3724,0.3743,0,0,0,0,0,0,0.3287,0.3318,0.3328,0.3353,0.3392,0.3408,0.3428,0.3434,0.346,0.3463,0.3453,0.3457,0.3531,0.3505,0.3473,0.3588,0.3511,0.3517,0.3628,0.3648,0.3665,0.3615,0.343,0,0,0,0,0,0.3291,0.332,0.3349,0.3381,0.3396,0.3417,0.3434,0.3448,0.3472,0.3483,0.3498,0.3513,0.3551,0.3573,0.3591,0.365,0.3665,0.37,0.3717,0.3731,0.3691,0.3877,0.3909,0.3569,0.3569,0.3568,0,0,0.3299,0.3322,0.3338,0.3382,0.3405,0.3453,0.3427,0.3471,0.3512,0.3483,0.3546,0.3573,0.3578,0.3656,0.3686,0.3648,0.3828,0.3738,0.3751,0.3701,0.3887,0.392,0.395,0.3572,0.3572,0.3571,0,0,0.3326,0.3348,0.3375,0.3422,0.3473,0.349,0.3512,0.355,0.3564,0.3633,0.3631,0.3697,0.3744,0.3773,0.379,0.3901,0.3912,0.3921,0.3972,0.4157,0.4187,0.4214,0.4251,0.428,0.3932,0.3932,0.3932,0,0.3333,0.3372,0.3394,0.3448,0.3479,0.3515,0.3554,0.3593,0.3649,0.3666,0.3675,0.3777,0.3798,0.3884,0.3929,0.3941,0.4005,0.3906,0.4184,0.4211,0.4235,0.4267,0.4297,0.3941,0.394,0.3939,0.3938,0,0.3403,0.343,0.3458,0.3533,0.3569,0.3621,0.3669,0.3713,0.3743,0.3788,0.3878,0.3921,0.3992,0.4021,0.401,0.4182,0.4154,0.4194,0.4142,0.4281,0.4303,0.4332,0.3954,0.3951,0.3948,0.3946,0,0,0.3371,0.3482,0.3484,0.3504,0.3612,0.3631,0.3715,0.3774,0.3836,0.3914,0.3994,0.4078,0.4129,0.4146,0.4173,0.429,0.4525,0.4319,0.4325,0.4365,0.4863,0.4655,0.4664,0.4666,0.4672,0.4677,0.4801,0,0.3398,0.3477,0.354,0.36,0.3611,0.3688,0.3776,0.3848,0.3916,0.4023,0.4079,0.4191,0.4178,0.4248,0.4382,0.4508,0.461,0.4479,0.4707,0.4709,0.4523,0.4695,0.4305,0.4368,0.4827,0.4832,0.4835,0,0.3417,0.3437,0.3497,0.3577,0.36,0.3677,0.3767,0.3859,0.4022,0.411,0.4234,0.4299,0.4464,0.4454,0.4731,0.4673,0.4767,0.4826,0.4836,0.4588,0.4556,0.4308,0.4401,0.4881,0.4877,0.4874,0.4871,0,0.3319,0.3397,0.3424,0.3465,0.3587,0.3626,0.3717,0.3868,0.3949,0.4173,0.4285,0.4482,0.4663,0.4797,0.4928,0.4894,0.5201,0.5193,0.5046,0.5028,0.4696,0.4638,0.5374,0.5374,0.5374,0.5373,0.5373,0,0.3326,0.3328,0.3375,0.3406,0.3469,0.3553,0.3662,0.3833,0.4005,0.4147,0.4341,0.4484,0.4793,0.497,0.5008,0.5114,0.531,0.5049,0.508,0.4734,0.4681,0.5116,0.5085,0.5378,0.5377,0.5376,0.5375,0,0.3225,0.332,0.3333,0.3407,0.3445,0.3494,0.3664,0.3759,0.3956,0.4145,0.423,0.4611,0.4887,0.5036,0.5323,0.5264,0.5321,0.5292,0.4781,0.4746,0.4976,0.4952,0.5137,0.5132,0.5127,0.5123,0.512,0,0.3206,0.3153,0.3267,0.337,0.3429,0.3484,0.3587,0.3766,0.3864,0.4168,0.4284,0.4617,0.4806,0.5094,0.5096,0.5107,0.5267,0.4733,0.4571,0.4956,0.4969,0.4952,0.4935,0.4192,0.4181,0.4173,0.4166,0,0.3079,0.3119,0.3172,0.3289,0.3431,0.3537,0.3661,0.3682,0.3889,0.4028,0.4263,0.4391,0.4685,0.462,0.468,0.461,0.4688,0.4549,0.5217,0.4289,0.4071,0.408,0.4094,0.4088,0.4096,0.4101,0.4106,0.4109,0.2998,0.3043,0.3138,0.3231,0.3408,0.356,0.3536,0.3629,0.3714,0.3812,0.405,0.4124,0.4229,0.4137,0.4002,0.3931,0.4231,0.4045,0.4071,0.4107,0.3953,0.3737,0.3655,0.366,0.3665,0.3669,0.3672,0,0.2931,0.303,0.3094,0.3285,0.3351,0.3501,0.3569,0.3458,0.3431,0.3591,0.3667,0.3383,0.334,0.3451,0.3194,0.3138,0.3108,0.3035,0.2984,0.3063,0.3133,0.2928,0.236,0.2356,0.2352,0.2348,0,0,0.2966,0.3006,0.3006,0.3123,0.325,0.3254,0.3244,0.3123,0.311,0.3007,0.2994,0.3218,0.3343,0.2817,0.2719,0.2515,0.2773,0.2412,0.347,0.3492,0.3557,0.3723,0.3497,0,0,0,0,0]},{"header":{"parameterUnit":"m.s-1","parameterCategory":2,"la1":30.2991,"la2":30.254,"lo1":-89.0895,"lo2":-89.0444,"dy":0.0017,"dx":0.0017,"nx":28,"ny":28,"refTime":"2023-07-31T09:00:00:Z","depth":"2","parameterNumber":3,"parameterNumberName":"V-component_of_CURRENTS"},"data":[0,0,0,0,0,0,0,0,0,0,0,0,0,0,0,0,0,0,0,0,0,0,0,0,0,0,0,0,0,0,0,0,0,0,0,0,0,0,0,0,0,0,0,0,0,0,0,0,0,0,0,0,0,0,0,0,0,0,0.0002,0.0002,0,-0.0039,-0.004,-0.004,-0.0076,-0.0077,-0.0077,-0.0077,-0.0131,-0.0133,-0.0134,0,0,0,0,0,0,0,0,0,0,0,0,0,0.0023,0.0023,0.0002,0.0001,0.0001,-0.0039,-0.004,-0.004,-0.0076,-0.0077,-0.0077,-0.0077,-0.0131,-0.0132,-0.0134,0,0,0,0,0,0,0,0,0,0,0,0,0,0.0,0.0023,0.0002,-0.0021,-0.0023,-0.0039,-0.004,-0.004,-0.0076,-0.0077,-0.0077,-0.0078,-0.0131,-0.0132,-0.0134,-0.0136,0,0,-0.0139,-0.014,0,0,0,0,0,0,0,0,0.0001,-0.0001,-0.0017,-0.0019,-0.0022,-0.0052,-0.0052,-0.0072,-0.0076,-0.0058,-0.0077,-0.0078,-0.0105,-0.0109,-0.0117,-0.0138,-0.0141,-0.0139,-0.0141,-0.0141,-0.0142,0,0,0,0,0,0,0,0.0003,0.0001,-0.0016,-0.0017,-0.002,-0.0037,-0.0041,-0.0056,-0.0079,-0.0059,-0.0062,-0.0064,-0.0106,-0.0115,-0.0119,-0.0141,-0.0139,-0.0141,-0.0142,-0.0143,-0.0159,-0.0159,0,0,0,0,0,0,0.0013,0.0002,-0.0014,-0.0017,-0.0009,-0.0037,-0.0041,-0.0043,-0.0079,-0.0085,-0.0063,-0.0065,-0.0112,-0.0117,-0.0121,-0.0119,-0.0141,-0.0143,-0.0144,-0.016,-0.0159,-0.0158,0,0,0,0,0,0,0.0013,0.0012,-0.0013,-0.0007,-0.0011,-0.0037,-0.0038,-0.0043,-0.0049,-0.0082,-0.0088,-0.0063,-0.0113,-0.0118,-0.0127,-0.0121,-0.0144,-0.0145,-0.016,-0.016,-0.0159,-0.0118,0,0,0,0,0,0,0.0014,0.0012,0.0015,-0.0006,-0.0011,-0.0011,-0.0038,-0.0044,-0.0049,-0.0052,-0.0083,-0.0089,-0.0113,-0.0124,-0.0128,-0.0124,-0.0147,-0.0161,-0.016,-0.0159,-0.0121,-0.0116,-0.0113,0,0,0,0,0,0.0015,0.0027,0.0015,0.0013,-0.0007,-0.0011,-0.0014,-0.0035,-0.0048,-0.0043,-0.0066,-0.0088,-0.012,-0.0124,-0.013,-0.0126,-0.0162,-0.016,-0.0159,-0.0122,-0.0117,-0.0113,0,0,0,0,0,0,0.0037,0.0024,0.001,0.0017,0.0007,-0.0016,-0.0011,-0.0028,-0.0043,-0.0044,-0.008,-0.0087,-0.0093,-0.0111,-0.0115,-0.0126,-0.0144,-0.0144,-0.0115,-0.011,-0.0106,-0.0087,-0.0148,0,0,0,0,0,0.0043,0.005,0.0031,0.0038,0.0036,0.0012,0.0008,-0.0005,-0.0021,-0.0028,-0.0052,-0.0074,-0.0091,-0.0101,-0.0117,-0.0122,-0.0125,-0.0123,-0.0119,-0.0115,-0.0103,-0.0063,-0.0054,-0.0154,-0.0154,-0.0154,0,0,0.0051,0.0048,0.0049,0.0043,0.0034,0.0046,0.0009,0.0012,0.0021,-0.003,-0.0026,-0.0059,-0.0088,-0.0096,-0.01,-0.0111,-0.0099,-0.0114,-0.011,-0.01,-0.0061,-0.0051,-0.0042,-0.0153,-0.0153,-0.0153,0,0,0.0087,0.0072,0.0093,0.0091,0.0086,0.0074,0.0079,0.006,0.005,0.0046,0.0011,-0.0015,-0.004,-0.0063,-0.0077,-0.0058,-0.0076,-0.0067,-0.0035,0.0003,0.0012,0.002,-0.0015,-0.001,-0.0067,-0.0067,-0.0067,0,0.0096,0.012,0.0099,0.0122,0.0132,0.0094,0.0123,0.0108,0.0087,0.009,0.0057,0.0014,-0.0021,-0.0029,-0.0034,-0.0049,-0.0047,-0.0053,0.001,0.0018,0.0026,-0.0012,-0.0007,-0.0065,-0.0065,-0.0066,-0.0066,0,0.0153,0.0166,0.0181,0.0199,0.0207,0.0224,0.0207,0.0209,0.0186,0.0166,0.015,0.0087,0.0067,0.0037,0.0002,0.0027,0.0,0.0013,0.0001,0.0038,-0.0005,-0.0,-0.0062,-0.0063,-0.0063,-0.0064,0,0,0.0185,0.0215,0.0219,0.0252,0.025,0.0275,0.0288,0.0299,0.0336,0.0265,0.0297,0.0209,0.0166,0.0147,0.0089,0.0092,0.011,0.0074,0.0075,0.0042,0.0153,0.0079,0.0076,0.015,0.0152,0.0153,0.0085,0,0.0235,0.0305,0.03,0.0368,0.0405,0.0386,0.0414,0.0417,0.0409,0.0428,0.0333,0.0339,0.0212,0.0211,0.0183,0.0163,0.0132,0.0124,0.0118,0.0116,0.0052,0.0083,0.0105,0.0044,0.0089,0.0089,0.009,0,0.0291,0.0336,0.0415,0.0477,0.0494,0.0529,0.0596,0.0618,0.0616,0.0608,0.0561,0.0504,0.0453,0.0369,0.0293,0.0302,0.0221,0.0174,0.0172,0.0101,0.0054,0.0022,0.0049,0.0097,0.0096,0.0096,0.0095,0,0.0356,0.0416,0.0494,0.0512,0.0571,0.0614,0.0649,0.0677,0.0731,0.0741,0.0784,0.0684,0.0688,0.0574,0.0419,0.0389,0.0353,0.031,0.0137,0.0128,0.0143,0.0132,0.0258,0.0258,0.0258,0.0258,0.0259,0,0.0415,0.0472,0.0537,0.0585,0.0687,0.0706,0.0825,0.0837,0.09,0.1007,0.0886,0.0945,0.0759,0.0691,0.0505,0.0333,0.0415,0.0146,0.0126,0.0149,0.014,0.0195,0.0189,0.0256,0.0256,0.0257,0.0257,0,0.0457,0.0498,0.0585,0.0676,0.0723,0.0793,0.0935,0.1035,0.1072,0.1216,0.1232,0.1184,0.1105,0.0867,0.0717,0.0481,0.0309,0.0218,0.0208,0.0187,0.0017,0.0014,0.0016,0.0014,0.0011,0.0009,0.0008,0,0.0485,0.0543,0.0658,0.0739,0.0784,0.0913,0.1029,0.1105,0.123,0.1375,0.146,0.1421,0.1399,0.1076,0.0709,0.0354,0.0317,0.0106,0.0035,0.0022,0.0002,0.0002,0.0002,0.0045,0.0044,0.0043,0.0042,0,0.0539,0.0572,0.0662,0.082,0.0951,0.1102,0.1273,0.14,0.1543,0.1671,0.1832,0.183,0.1514,0.1172,0.0659,0.0408,0.0156,0.007,0.0139,0.0095,0.0043,0.0025,0.0025,0.0034,0.0035,0.0035,0.0036,0.0036,0.0595,0.0635,0.0764,0.0925,0.109,0.1298,0.1457,0.165,0.187,0.2071,0.2064,0.2049,0.1637,0.0974,0.056,0.0105,0.0109,-0.0084,-0.0077,-0.007,-0.0061,-0.0115,-0.0157,-0.0157,-0.0157,-0.0157,-0.0158,0,0.0682,0.0737,0.0873,0.1081,0.1297,0.1356,0.1644,0.1813,0.2099,0.22,0.2292,0.1891,0.1491,0.1035,0.0354,-0.0073,-0.0088,-0.0204,-0.0123,-0.0113,-0.0105,-0.0095,-0.0202,-0.0202,-0.0203,-0.0204,0,0,0.0725,0.0856,0.0914,0.1243,0.1417,0.1688,0.1862,0.2086,0.2205,0.2303,0.2261,0.2143,0.1599,0.1093,0.0549,0.0184,0.0126,0.01,0.0172,0.0339,0.0353,-0.0007,0.0022,0,0,0,0,0]}],[{"header":{"parameterUnit":"m.s-1","parameterCategory":2,"la1":30.2991,"la2":30.254,"lo1":-89.0895,"lo2":-89.0444,"dy":0.0017,"dx":0.0017,"nx":28,"ny":28,"refTime":"2023-07-31T09:00:00:Z","depth":"4","parameterNumber":2,"parameterNumberName":"U-component_of_CURRENTS"},"data":[0,0,0,0,0,0,0,0,0,0,0,0,0,0,0,0,0,0,0,0,0,0,0,0,0,0,0,0,0,0,0,0,0,0,0,0,0,0,0,0,0,0,0,0,0,0,0,0,0,0,0,0,0,0,0,0,0,0,0.1859,0.186,0,0.1922,0.1923,0.1924,0.1982,0.1982,0.1983,0.1984,0.2006,0.2006,0.2006,0,0,0,0,0,0,0,0,0,0,0,0,0,0.1781,0.1782,0.1859,0.186,0.1861,0.1922,0.1923,0.1924,0.1982,0.1983,0.1983,0.1984,0.2006,0.2006,0.2006,0,0,0,0,0,0,0,0,0,0,0,0,0,0.1825,0.1782,0.1859,0.1898,0.1902,0.1922,0.1923,0.1924,0.1981,0.1983,0.1984,0.1985,0.2006,0.2006,0.2006,0.198,0,0,0.2005,0.2005,0,0,0,0,0,0,0,0,0.1823,0.1828,0.1891,0.1895,0.19,0.1946,0.1904,0.1941,0.1981,0.195,0.1984,0.1985,0.1982,0.1984,0.1992,0.1981,0.1982,0.2005,0.2005,0.2005,0.2005,0,0,0,0,0,0,0,0.182,0.1826,0.1883,0.1892,0.1898,0.191,0.1917,0.1911,0.1957,0.1953,0.1958,0.1966,0.1984,0.1992,0.1993,0.1982,0.2005,0.2005,0.2005,0.2004,0.2108,0.2111,0,0,0,0,0,0,0.1813,0.1823,0.1881,0.1885,0.1865,0.191,0.1919,0.1929,0.1958,0.1964,0.1965,0.1968,0.1992,0.1993,0.1994,0.2064,0.2005,0.2004,0.2004,0.2105,0.2109,0.2112,0,0,0,0,0,0,0.1811,0.1818,0.1879,0.1856,0.1865,0.1911,0.1922,0.193,0.1981,0.1968,0.1973,0.2013,0.1993,0.1994,0.2027,0.2061,0.2004,0.2004,0.2102,0.2107,0.2111,0.2139,0,0,0,0,0,0,0.1809,0.1817,0.1838,0.1856,0.1866,0.1919,0.1921,0.193,0.1982,0.1989,0.2009,0.201,0.1994,0.2028,0.2027,0.206,0.2004,0.2098,0.2104,0.2109,0.2135,0.2144,0.2152,0,0,0,0,0,0.1806,0.1816,0.1838,0.1846,0.1888,0.192,0.1928,0.1962,0.1984,0.2012,0.2029,0.2012,0.2063,0.2029,0.2028,0.2061,0.2096,0.2102,0.2109,0.2131,0.2142,0.2152,0,0,0,0,0,0,0.1796,0.1823,0.1848,0.187,0.1911,0.1931,0.1961,0.1986,0.2023,0.2043,0.2029,0.2032,0.2085,0.2075,0.2038,0.2116,0.2085,0.2091,0.2102,0.2113,0.2122,0.2104,0.2004,0,0,0,0,0,0.1803,0.1823,0.1856,0.1883,0.1905,0.1944,0.1969,0.2,0.2026,0.2048,0.2057,0.208,0.2104,0.211,0.2132,0.215,0.2182,0.2183,0.2192,0.2199,0.2189,0.2313,0.2331,0.2134,0.2134,0.2133,0,0,0.1798,0.1828,0.1834,0.1884,0.1919,0.194,0.1964,0.2018,0.2044,0.204,0.2084,0.2115,0.2124,0.216,0.2183,0.2154,0.227,0.2207,0.2212,0.2199,0.2321,0.234,0.2357,0.2138,0.2137,0.2137,0,0,0.1801,0.184,0.1857,0.1883,0.1949,0.1974,0.2,0.2048,0.2086,0.2133,0.2146,0.2194,0.2222,0.2229,0.2235,0.2306,0.2326,0.2334,0.2339,0.2459,0.2476,0.2491,0.2539,0.2558,0.2321,0.2321,0.2321,0,0.1804,0.182,0.187,0.1891,0.1903,0.199,0.2001,0.2051,0.2107,0.2134,0.2161,0.224,0.2251,0.2279,0.231,0.2321,0.2381,0.2287,0.2469,0.2484,0.2499,0.2545,0.2565,0.2323,0.2323,0.2323,0.2323,0,0.1799,0.1821,0.1837,0.1884,0.1915,0.1944,0.2005,0.2072,0.2137,0.2174,0.2258,0.229,0.2337,0.2357,0.2348,0.2449,0.2454,0.2477,0.2432,0.2521,0.2563,0.2584,0.2326,0.2326,0.2325,0.2325,0,0,0.1767,0.1819,0.1827,0.1836,0.1906,0.1928,0.1998,0.2065,0.213,0.2207,0.2265,0.2324,0.2377,0.239,0.2408,0.2485,0.2634,0.2525,0.2531,0.2553,0.2875,0.2653,0.2654,0.2714,0.2718,0.2721,0.2855,0,0.175,0.1763,0.1801,0.1818,0.1815,0.1903,0.1956,0.204,0.2138,0.2227,0.2293,0.2378,0.2381,0.2438,0.2515,0.2639,0.2696,0.2592,0.2802,0.2806,0.2584,0.2674,0.2735,0.287,0.2875,0.2879,0.2881,0,0.1713,0.1725,0.1724,0.177,0.1785,0.1829,0.1941,0.201,0.2156,0.2239,0.2339,0.2415,0.2534,0.2541,0.2761,0.2714,0.2787,0.2853,0.2862,0.2653,0.2623,0.2773,0.2919,0.2916,0.2913,0.2911,0.2908,0,0.1626,0.1665,0.1663,0.1667,0.1744,0.1796,0.1878,0.2019,0.211,0.2281,0.238,0.251,0.2628,0.2769,0.291,0.2884,0.3139,0.3125,0.2961,0.2945,0.309,0.3072,0.3251,0.3251,0.325,0.325,0.325,0,0.1547,0.1546,0.1636,0.1626,0.1671,0.1754,0.1868,0.1973,0.2147,0.2259,0.2402,0.2506,0.2713,0.2867,0.2959,0.3028,0.3199,0.2962,0.2976,0.3096,0.3078,0.3103,0.3084,0.3255,0.3254,0.3253,0.3252,0,0.1422,0.1484,0.1473,0.1565,0.1627,0.1658,0.1872,0.1948,0.215,0.2311,0.2382,0.2581,0.279,0.2933,0.3161,0.3079,0.3176,0.3137,0.3229,0.3247,0.2876,0.2857,0.2968,0.2961,0.2956,0.2951,0.2948,0,0.1331,0.1324,0.142,0.1447,0.15,0.1616,0.1706,0.1925,0.203,0.234,0.2389,0.2632,0.2752,0.289,0.304,0.3158,0.3113,0.3091,0.2971,0.285,0.2854,0.2844,0.2833,0.2939,0.2937,0.2936,0.2935,0,0.1146,0.1212,0.1217,0.132,0.1403,0.147,0.1637,0.1719,0.1987,0.2196,0.2373,0.2474,0.2653,0.2787,0.2875,0.2954,0.3081,0.3033,0.3043,0.293,0.2816,0.2823,0.2819,0.2916,0.2918,0.292,0.2921,0,0.1007,0.0991,0.1079,0.117,0.1243,0.1293,0.1407,0.1577,0.1732,0.2107,0.2165,0.2429,0.2647,0.2681,0.2793,0.2829,0.2775,0.2649,0.2678,0.2701,0.2546,0.2357,0.2332,0,0,0,0,0,0.0867,0.09,0.0949,0.1023,0.1086,0.1176,0.1343,0.1474,0.1782,0.1854,0.2022,0.2197,0.2343,0.2463,0.2451,0.2626,0.2748,0.2588,0.2608,0.281,0.2832,0.2671,0,0,0,0,0,0,0.0782,0.0808,0.0902,0.0905,0.0951,0.1019,0.1115,0.1306,0.1391,0.171,0.1821,0.204,0.2229,0.2365,0.2414,0.2446,0.2399,0.2762,0.2754,0.2798,0.2818,0.2835,0.2677,0,0,0,0,0]},{"header":{"parameterUnit":"m.s-1","parameterCategory":2,"la1":30.2991,"la2":30.254,"lo1":-89.0895,"lo2":-89.0444,"dy":0.0017,"dx":0.0017,"nx":28,"ny":28,"refTime":"2023-07-31T09:00:00:Z","depth":"4","parameterNumber":3,"parameterNumberName":"V-component_of_CURRENTS"},"data":[0,0,0,0,0,0,0,0,0,0,0,0,0,0,0,0,0,0,0,0,0,0,0,0,0,0,0,0,0,0,0,0,0,0,0,0,0,0,0,0,0,0,0,0,0,0,0,0,0,0,0,0,0,0,0,0,0,0,0.0014,0.0014,0,-0.0016,-0.0016,-0.0016,-0.0036,-0.0036,-0.0036,-0.0036,-0.0063,-0.0064,-0.0064,0,0,0,0,0,0,0,0,0,0,0,0,0,0.0028,0.0028,0.0014,0.0014,0.0014,-0.0016,-0.0016,-0.0017,-0.0036,-0.0036,-0.0036,-0.0036,-0.0063,-0.0064,-0.0064,0,0,0,0,0,0,0,0,0,0,0,0,0,0.0012,0.0028,0.0014,0.0001,-0.0001,-0.0016,-0.0016,-0.0017,-0.0036,-0.0036,-0.0036,-0.0036,-0.0063,-0.0064,-0.0064,-0.0068,0,0,-0.0067,-0.0068,0,0,0,0,0,0,0,0,0.0013,0.0011,0.0003,0.0002,0.0,-0.0022,-0.0021,-0.0034,-0.0036,-0.0023,-0.0036,-0.0036,-0.0049,-0.0051,-0.0057,-0.0069,-0.007,-0.0068,-0.0068,-0.0069,-0.0069,0,0,0,0,0,0,0,0.0014,0.0012,0.0002,0.0003,0.0001,-0.0013,-0.0015,-0.0024,-0.0035,-0.0024,-0.0025,-0.0028,-0.005,-0.0056,-0.0057,-0.0071,-0.0067,-0.0068,-0.0069,-0.0069,-0.0097,-0.0097,0,0,0,0,0,0,0.002,0.0014,0.0003,0.0001,0.0007,-0.0013,-0.0016,-0.0015,-0.0035,-0.0038,-0.0028,-0.0029,-0.0054,-0.0056,-0.0058,-0.0055,-0.0069,-0.0069,-0.007,-0.0097,-0.0097,-0.0097,0,0,0,0,0,0,0.0021,0.002,0.0004,0.0007,0.0004,-0.0013,-0.0012,-0.0015,-0.0019,-0.0038,-0.0041,-0.0028,-0.0054,-0.0057,-0.0065,-0.0057,-0.007,-0.0071,-0.0097,-0.0097,-0.0097,-0.0055,0,0,0,0,0,0,0.0021,0.002,0.0022,0.0007,0.0004,0.0002,-0.0012,-0.0016,-0.0021,-0.0022,-0.0039,-0.0042,-0.0055,-0.0063,-0.0066,-0.0058,-0.0072,-0.0097,-0.0097,-0.0097,-0.0056,-0.0053,-0.0051,0,0,0,0,0,0.0022,0.0029,0.0023,0.0021,0.0008,0.0003,-0.0,-0.0013,-0.002,-0.0018,-0.0033,-0.0041,-0.0067,-0.0064,-0.0067,-0.006,-0.0096,-0.0097,-0.0097,-0.0057,-0.0054,-0.0051,0,0,0,0,0,0,0.0033,0.0028,0.002,0.0024,0.0016,-0.0,0.0,-0.0009,-0.002,-0.0021,-0.004,-0.0044,-0.0051,-0.0063,-0.0059,-0.0071,-0.0084,-0.0085,-0.0053,-0.005,-0.0048,-0.0021,-0.0072,0,0,0,0,0,0.0038,0.0044,0.0032,0.0035,0.0033,0.0017,0.0012,0.0005,-0.0007,-0.0012,-0.0025,-0.0042,-0.0056,-0.0058,-0.0075,-0.0074,-0.0101,-0.0074,-0.0072,-0.007,-0.0051,-0.0098,-0.0097,-0.0099,-0.0099,-0.0099,0,0,0.0041,0.004,0.0041,0.0038,0.003,0.0044,0.0014,0.0013,0.0029,-0.0012,-0.0001,-0.0035,-0.0057,-0.0062,-0.0066,-0.0067,-0.0087,-0.007,-0.0068,-0.005,-0.0098,-0.0098,-0.0098,-0.0099,-0.0099,-0.0099,0,0,0.0065,0.0052,0.0072,0.0071,0.0067,0.006,0.0063,0.0049,0.0046,0.0046,0.0016,-0.0015,-0.0024,-0.0046,-0.0055,-0.005,-0.0078,-0.0055,-0.0012,-0.0058,-0.0058,-0.0058,-0.0102,-0.0106,-0.0047,-0.0047,-0.0047,0,0.0071,0.0098,0.0075,0.0098,0.011,0.0074,0.0106,0.0095,0.008,0.0082,0.0058,0.001,-0.0016,-0.0026,-0.0023,-0.0044,-0.007,-0.0019,-0.0054,-0.0055,-0.0056,-0.01,-0.0106,-0.0045,-0.0046,-0.0046,-0.0046,0,0.0117,0.0138,0.0149,0.0172,0.0178,0.0194,0.0184,0.0184,0.0169,0.0152,0.0127,0.0069,0.0046,0.0021,0.0007,-0.0011,-0.0029,-0.0051,-0.0057,-0.0053,-0.0101,-0.0107,-0.0042,-0.0043,-0.0044,-0.0044,0,0,0.0139,0.0177,0.0182,0.0219,0.0223,0.024,0.026,0.0271,0.0287,0.0235,0.024,0.0183,0.0133,0.0119,0.007,0.0028,-0.0013,0.0001,-0.0003,-0.0035,-0.0109,-0.0111,-0.0119,-0.0038,-0.0039,-0.0039,-0.0143,0,0.0188,0.0257,0.0261,0.033,0.0368,0.0354,0.0381,0.038,0.0356,0.0344,0.0261,0.0241,0.0177,0.016,0.0105,0.0023,-0.0025,0.0018,-0.0113,-0.0117,-0.0114,-0.0125,-0.0041,-0.0148,-0.0149,-0.0151,-0.0151,0,0.0239,0.0285,0.0365,0.0432,0.0447,0.0485,0.0524,0.0542,0.0505,0.0483,0.0423,0.0352,0.0283,0.022,0.0076,0.0111,0.0016,-0.0064,-0.0071,-0.0086,-0.0131,-0.0153,-0.0163,-0.0162,-0.0162,-0.0161,-0.016,0,0.0284,0.0359,0.0434,0.0456,0.0517,0.0562,0.0594,0.0588,0.0618,0.057,0.0564,0.045,0.0397,0.0266,0.0099,0.0096,-0.0071,-0.0103,-0.0205,-0.0207,-0.0191,-0.019,-0.0209,-0.0209,-0.0208,-0.0208,-0.0208,0,0.0339,0.04,0.0471,0.0517,0.0619,0.0634,0.0722,0.0725,0.073,0.0761,0.0644,0.0616,0.0409,0.0279,0.0128,-0.0053,-0.0054,-0.0192,-0.0231,-0.0174,-0.0169,-0.0197,-0.0194,-0.0212,-0.0211,-0.021,-0.021,0,0.0373,0.0415,0.0516,0.0608,0.0648,0.0723,0.0831,0.0882,0.0872,0.0903,0.0895,0.0748,0.0582,0.0364,0.0132,-0.0007,-0.0184,-0.0253,-0.017,-0.0204,-0.0298,-0.0292,-0.0367,-0.0368,-0.0369,-0.0369,-0.037,0,0.0401,0.0454,0.0584,0.066,0.0716,0.083,0.091,0.0954,0.1002,0.098,0.099,0.0836,0.0714,0.0387,0.0148,-0.015,-0.0201,-0.0303,-0.0305,-0.0282,-0.0313,-0.0305,-0.0299,-0.0371,-0.0371,-0.0371,-0.0372,0,0.0458,0.0498,0.0578,0.0728,0.0843,0.0961,0.107,0.112,0.1155,0.115,0.1074,0.0886,0.0683,0.0399,0.0159,-0.0057,-0.0238,-0.0312,-0.0312,-0.0315,-0.0288,-0.0316,-0.0308,-0.0374,-0.0374,-0.0374,-0.0374,0,0.0499,0.0558,0.0661,0.079,0.0926,0.104,0.1108,0.1167,0.1214,0.1187,0.1156,0.0931,0.079,0.0447,0.0232,0.0015,-0.0048,-0.013,-0.0141,-0.0141,-0.0052,0.0017,-0.0002,0,0,0,0,0,0.0546,0.0607,0.0719,0.086,0.0985,0.1067,0.1185,0.1234,0.1271,0.1239,0.1204,0.1019,0.0676,0.0512,0.0299,0.0202,-0.0095,-0.006,-0.0197,-0.0389,-0.0386,-0.0321,0,0,0,0,0,0,0.0576,0.0682,0.0715,0.0874,0.0978,0.1126,0.1206,0.1242,0.122,0.1215,0.104,0.0953,0.0623,0.0806,0.0291,0.0222,0.0101,-0.0217,-0.0222,-0.0391,-0.0388,-0.0385,-0.0318,0,0,0,0,0]}]]